Regional Weather Roundup
Issued by NWS

Home | Current Version | Previous Version | Text Only | Print | Product List | Glossary On
Versions: 1 2 3 4 5 6 7 8 9 10 11 12 13 14 15 16 17 18 19 20 21 22 23 24 25 26 27 28 29 30 31 32 33 34 35 36 37 38 39 40 41 42 43 44 45 46 47 48 49 50
000
ASUS43 KDTX 270310
RWRMI
MICHIGAN HOURLY REGIONAL WEATHER ROUNDUP
NATIONAL WEATHER SERVICE DETROIT/PONTIAC MI
ISSUED BY NATIONAL WEATHER SERVICE GRAND RAPIDS MI
1100 PM EDT WED JUL 26 2017

NOTE: "FAIR" INDICATES FEW OR NO CLOUDS BELOW 12,000 FEET WITH NO
SIGNIFICANT WEATHER AND/OR OBSTRUCTION TO VISIBILITY.

MIZ047>049-052>055-059>063-066>070-074>076-081>083-270400-
SOUTHEAST LOWER MICHIGAN

CITY           SKY/WX    TMP DP  RH WIND       PRES   REMARKS
ADRIAN         MOCLDY    71  65  81 CALM      30.05S
ALMA           CLOUDY    72  65  79 S12       29.98F
ANN ARBOR      CLOUDY    71  65  81 SE3       30.03F
BAD AXE        LGT RAIN  67  66  95 CALM      30.01R
DETROIT CITY   CLOUDY    74  64  71 S5        30.03S
DETROIT        CLOUDY    73  67  81 S6        30.04S
FLINT          CLOUDY    74  63  68 SW3       30.02S
GROSSE ILE     CLOUDY    74  69  82 S7        30.02F
HILLSDALE      CLOUDY    70  63  78 SE5       30.03F
HOWELL         CLOUDY    73  64  72 S5        30.03F

CITY           SKY/WX    TMP DP  RH WIND       PRES   REMARKS
JACKSON        CLOUDY    74  63  68 S7        30.03F
LANSING        CLOUDY    75  61  61 S7        30.01F
MASON          CLOUDY    70  64  83 SE5       30.02F
MONROE         CLOUDY    74  69  82 SE5       30.02F
MT. CLEMENS    CLOUDY    73  66  79 S8        30.01S
PONTIAC        CLOUDY    74  64  71 S6        30.02S
PORT HOPE        N/A     69  66  90 SW5       29.98R
PORT HURON     CLOUDY    70  64  83 S3        30.02S
TRI CITIES     LGT RAIN  72  71  97 S5        29.99F
YPSILANTI      CLOUDY    73  68  84 S9        30.03F
$$
MIZ043>046-050>051-056>058-064>065-071>073-077>080-270400-
SOUTHWEST LOWER MICHIGAN

CITY           SKY/WX    TMP DP  RH WIND       PRES   REMARKS
BATTLE CREEK   CLOUDY    75  65  70 SE8       30.01F
BENTON HARBOR  CLOUDY    76  66  71 CALM      29.99S
BIG RAPIDS     LGT RAIN  69  66  90 SW3       29.99R
COLDWATER      MOCLDY    72  67  85 SE3       30.02F
HOLLAND        CLOUDY    73  67  81 S5        29.99S
GRAND RAPIDS   CLOUDY    74  67  78 S8        29.99F
KALAMAZOO      MOCLDY    75  63  66 E3        30.00F
MARSHALL       CLOUDY    73  66  79 SE3       30.02F
MOUNT PLEASANT LGT RAIN  72  67  84 CALM      29.97F
MUSKEGON       MOCLDY    70  68  93 CALM      29.99R
STURGIS        MOCLDY    73  66  78 MISG      30.01F
$$
MIZ016>042-270400-
NORTHERN LOWER MICHIGAN

CITY           SKY/WX    TMP DP  RH WIND       PRES   REMARKS
ALPENA         CLOUDY    69  69 100 SW3       29.97R
BEAVER ISLAND  CLOUDY    68  67  98 W3        29.96F
BELLAIRE       CLOUDY    69  67  93 CALM      29.97S
CADILLAC       CLOUDY    71  68  90 CALM      29.99S
CHARLEVOIX     CLOUDY    70  68  94 SW7       29.99S
GAYLORD        MOCLDY    68  64  87 SW3       30.00R
HOUGHTON LAKE  CLOUDY    69  67  93 SW3       30.00R
MANISTEE       MOCLDY    68  67  96 CALM      29.97S
OSCODA         CLOUDY    69  67  96 CALM      29.98R
PELLSTON       MOCLDY    68  67  96 W6        29.97R
TRAVERSE CITY  CLOUDY    71  68  90 CALM      29.95R
LUDINGTON      CLOUDY    69  68  99 SW3       29.97R FOG
$$
MIZ007>008-015-270400-
EASTERN UPPER MICHIGAN

CITY           SKY/WX    TMP DP  RH WIND       PRES   REMARKS
KINROSS        CLEAR     65  64  97 SW5       29.96R FOG
MACKINAC ISLAN CLOUDY    67  67 100 W5        29.96S FOG
NEWBERRY       FOG       61  60  97 CALM      29.96R VSB 1/2
S. S. MARIE    CLEAR     60  56  86 W3        29.95S
$$
MIZ004>006-011>014-085-270400-
CENTRAL UPPER MICHIGAN

CITY           SKY/WX    TMP DP  RH WIND       PRES   REMARKS
MANISTIQUE     CLEAR     59  56  89 CALM      29.96R
ESCANABA       CLEAR     63  62  97 CALM      29.96R
MENOMINEE      CLEAR     72  69  90 W5        29.95R
SAWYER-GWINN   CLEAR     64  55  75 SW3       29.99R
$$
MIZ001>003-009>011-084-270400-
WESTERN UPPER MICHIGAN

CITY           SKY/WX    TMP DP  RH WIND       PRES   REMARKS
IRON MOUNTAIN  CLEAR     61  54  77 CALM      29.98R
HOUGHTON       PTCLDY    65  57  75 NW9       29.96R
COPPER HARBOR    N/A     68  54  60 VRB3      29.94R
IRONWOOD       CLEAR     61  60  97 CALM      30.01R
$$

ABBREVIATIONS USED IN REMARKS
   TC - TEMPERATURE IN CELSIUS
  WCI - WIND CHILL INDEX
   HX - HEAT INDEX
  VSB - VISIBILITY





USA.gov is the U.S. government's official web portal to all federal, state and local government web resources and services.